Regional Weather Roundup
Issued by NWS Goodland, KS

Home | Current Version | Previous Version | Text Only | Print | Product List | Glossary Off
Versions: 1 2 3 4 5 6 7 8 9 10 11 12 13 14 15 16 17 18 19 20 21 22 23 24 25 26 27 28 29 30 31 32 33 34 35 36 37 38 39 40 41 42 43 44 45 46 47 48 49 50

000
ASUS43 KGLD 231459
RWRGLD

GOODLAND FORECAST AREA HOURLY WEATHER ROUNDUP
NATIONAL WEATHER SERVICE GOODLAND KS
900 AM MDT TUE MAY 23 2017

...OFFICIAL OBSERVATIONS...

CITY           SKY/WX    TMP DP  RH WIND       PRES   REMARKS
GOODLAND KS    SUNNY     52  43  71 NW18      30.12S
HILL CITY KS   PTSUNNY   57  45  64 NW15      30.05F
IMPERIAL NEB   CLOUDY    54  40  59 NW15G26   30.10F
MCCOOK NEB     MOSUNNY   58  43  57 NW23G32   30.05F
AKRON CO       MOSUNNY   51  37  58 N21G31    30.18R
BURLINGTON CO  SUNNY     52  40  63 N20G32    30.14F
LIMON CO       CLOUDY    47  36  65 N21G30    30.20S
$$

...UNOFFICIAL OBSERVATIONS...

CITY           SKY/WX    TMP DP  RH WIND       PRES   REMARKS
LENORA KS        N/A     54  32  43 MISG        N/A
NORTON KS      PTSUNNY   55  41  58 W15G22    30.03S
SHARON SPRINGS   N/A     53  45  74 NW13G20     N/A
TRENTON NEB      N/A     55  32  41 NW12        N/A
KIT CARSON CO    N/A     52  39  62 MISG        N/A
YUMA CO        PTSUNNY   50  37  62 NW18G26   30.15S
$$




USA.gov is the U.S. government's official web portal to all federal, state and local government web resources and services.